マクノート彗星

C/2011 L1 ( McNaught )

English version
Home page
Updated on October 14, 2011

---------------------------------------------------------------------

・ プロフィール

発見日 2011年6月2日
発見光度 16.9等
発見者 Robert H. McNaught (Siding Spring)

・ 写真集

・ 軌道要素

Epoch 2010 Dec. 30.0 TT = JDT 2455560.5
T 2010 Dec. 18.30836 TT                                 MPC
q   2.2424391            (2000.0)            P               Q
n   0.02688675     Peri.  294.47339     -0.48507028     -0.11205910
a  11.0351238      Node   252.36565     +0.07210809     -0.99350363
e   0.7967908      Incl.   65.50930     -0.87149713     -0.01983152
P  36.7
From 120 observations 2011 June 2-Sept. 13, mean residual 0".6.

・ 星図

・ 光度変化

        m1 = 11.0 + 5 logΔ + 10.0 log r

---------------------------------------------------------------------

軌道要素はM.P.E.C. 2011-S56に掲載されたものです。
星図はステラナビゲータ Ver.8 (アストロアーツ) で作成したものです。
光度グラフはComet for Windowsで作成したものです。

---------------------------------------------------------------------

Copyright(C) Seiichi Yoshida (comet@aerith.net). All rights reserved.